Visibility
15.0 15.0 15.0 15.0 15.0 15.0 15.0 15.0 15.0 15.0 15.0 15.0 15.0 15.0 15.0 15.0 15.0 15.0 15.0 15.0 15.0 15.0 15.0 15.0 15.0 15.0 15.0 15.0 15.0 15.0 15.0 15.0 15.0 15.0 15.0 15.0 15.0 15.0 15.0 15.0 6.4 15.0 15.0 15.0
15.0 15.0 15.0 15.0 15.0 15.0 15.0 15.0 15.0 15.0 15.0 15.0 15.0 15.0 15.0 15.0 15.0 15.0 15.0 15.0 15.0 15.0 15.0 15.0 15.0 15.0 15.0 15.0 15.0 15.0 15.0 15.0 2.5 15.0 15.0 15.0 15.0 15.0 15.0 15.0 15.0 14.5 14.6 15.0
15.0 15.0 15.0 15.0 15.0 15.0 15.0 15.0 0.1 15.0 15.0 15.0 15.0 15.0 15.0 15.0 15.0 15.0 15.0 15.0 15.0 15.0 15.0 15.0 15.0 15.0 15.0 15.0 15.0 15.0 15.0 15.0 15.0 0.1 15.0 15.0 15.0 15.0 15.0 15.0 15.0 12.9 8.3 14.7
15.0 15.0 15.0 15.0 15.0 15.0 15.0 13.8 9.3 15.0 12.2 15.0 15.0 15.0 15.0 15.0 15.0 15.0 15.0 15.0 15.0 15.0 15.0 15.0 15.0 15.0 15.0 15.0 15.0 15.0 15.0 15.0 15.0 15.0 15.0 15.0 15.0 15.0 15.0 15.0 15.0 15.0 15.0 15.0
15.0 15.0 15.0 15.0 15.0 15.0 15.0 0.4 15.0 15.0 15.0 15.0 15.0 5.2 15.0 15.0 15.0 15.0 15.0 15.0 15.0 15.0 15.0 15.0 14.9 15.0 15.0 15.0 15.0 15.0 15.0 15.0 15.0 15.0 15.0 15.0 14.9 15.0 15.0 15.0 15.0 15.0 15.0 15.0
15.0 15.0 15.0 15.0 14.1 13.3 15.0 15.0 15.0 3.9 13.1 15.0 15.0 15.0 15.0 15.0 15.0 15.0 15.0 15.0 15.0 15.0 15.0 15.0 15.0 15.0 15.0 15.0 15.0 15.0 15.0 14.7 0.7 15.0 15.0 15.0 15.0 15.0 15.0 15.0 15.0 15.0 15.0 15.0
15.0 15.0 15.0 15.0 15.0 13.5 15.0 15.0 15.0 3.0 4.2 15.0 15.0 15.0 15.0 15.0 15.0 10.6 15.0 15.0 15.0 15.0 15.0 15.0 15.0 15.0 15.0 15.0 15.0 15.0 15.0 15.0 15.0 11.2 14.8 2.7 15.0 15.0 15.0 15.0 15.0 15.0 15.0 15.0
15.0 15.0 15.0 15.0 15.0 13.5 14.1 15.0 10.9 0.1 0.1 12.1 6.9 15.0 15.0 15.0 15.0 13.4 15.0 15.0 15.0 15.0 14.9 6.3 15.0 15.0 15.0 15.0 15.0 15.0 15.0 15.0 15.0 15.0 15.0 14.1 15.0 15.0 15.0 12.6 15.0 15.0 15.0 15.0
15.0 15.0 15.0 15.0 15.0 15.0 15.0 15.0 15.0 8.6 0.1 2.5 15.0 15.0 15.0 15.0 15.0 15.0 15.0 15.0 15.0 15.0 8.9 7.0 0.7 14.1 15.0 15.0 15.0 15.0 15.0 15.0 14.0 14.9 14.9 15.0 15.0 15.0 15.0 15.0 15.0 15.0 15.0 15.0
15.0 15.0 15.0 15.0 15.0 15.0 13.0 15.0 15.0 15.0 8.2 15.0 15.0 2.5 9.4 15.0 15.0 14.8 15.0 15.0 12.7 10.0 1.4 0.2 1.0 7.1 15.0 13.4 15.0 15.0 15.0 15.0 3.2 2.0 8.9 14.3 15.0 15.0 15.0 5.2 14.6 14.6 6.6 15.0
15.0 15.0 15.0 15.0 15.0 15.0 11.5 15.0 15.0 9.2 0.1 8.8 15.0 15.0 15.0 15.0 15.0 10.4 14.9 1.5 12.6 10.1 0.3 1.0 8.6 4.2 15.0 15.0 15.0 15.0 15.0 9.8 8.7 15.0 3.5 6.6 15.0 15.0 15.0 15.0 15.0 15.0 13.1 15.0
15.0 15.0 14.2 15.0 15.0 11.1 10.5 0.1 15.0 15.0 0.1 0.0 15.0 15.0 15.0 15.0 15.0 6.9 15.0 13.0 13.3 0.0 0.1 4.0 3.2 3.6 13.9 14.0 2.9 15.0 12.7 15.0 13.3 14.3 15.0 15.0 15.0 15.0 15.0 15.0 15.0 15.0 7.8 1.5
15.0 15.0 15.0 15.0 13.0 12.6 15.0 11.8 13.3 0.2 0.0 0.0 0.1 0.2 15.0 15.0 15.0 15.0 1.7 15.0 15.0 15.0 15.0 14.1 1.5 0.1 1.8 0.1 11.4 15.0 15.0 15.0 14.4 13.5 15.0 15.0 15.0 15.0 15.0 15.0 15.0 14.9 14.0 3.8
15.0 15.0 15.0 15.0 15.0 14.9 12.2 6.2 12.5 4.4 0.0 0.0 9.6 15.0 15.0 15.0 15.0 15.0 15.0 15.0 15.0 15.0 14.5 3.8 0.2 0.6 12.9 3.7 15.0 15.0 15.0 15.0 15.0 15.0 15.0 15.0 15.0 15.0 15.0 15.0 15.0 6.1 1.9 4.7
11.5 12.9 15.0 15.0 13.6 11.0 8.6 9.8 7.0 6.7 0.1 0.0 2.7 15.0 15.0 15.0 15.0 15.0 15.0 15.0 15.0 15.0 5.6 1.6 0.2 14.3 8.5 8.0 8.0 15.0 15.0 15.0 15.0 15.0 15.0 15.0 15.0 15.0 15.0 15.0 15.0 15.0 3.6 12.3
15.0 15.0 15.0 15.0 15.0 10.9 14.0 0.2 6.7 15.0 14.9 0.0 0.0 12.0 15.0 15.0 15.0 15.0 15.0 15.0 15.0 9.6 0.8 1.2 1.8 15.0 7.3 0.1 0.7 15.0 15.0 15.0 15.0 15.0 15.0 15.0 15.0 15.0 15.0 15.0 15.0 9.8 1.6 5.9
15.0 15.0 15.0 15.0 15.0 12.8 0.1 0.6 1.6 15.0 15.0 0.0 0.0 2.7 15.0 15.0 15.0 15.0 15.0 14.4 12.7 8.2 5.4 3.0 1.3 14.8 8.6 0.6 0.1 15.0 15.0 15.0 15.0 15.0 15.0 15.0 15.0 15.0 15.0 15.0 7.9 1.9 1.8 11.9
15.0 15.0 15.0 15.0 15.0 10.8 0.1 12.5 11.8 5.0 0.1 0.0 0.0 6.0 12.7 15.0 15.0 14.7 14.4 11.7 6.3 0.6 0.2 0.2 3.9 9.4 2.0 0.1 15.0 15.0 15.0 15.0 15.0 15.0 15.0 15.0 15.0 15.0 15.0 14.6 3.2 2.0 15.0 15.0
15.0 15.0 15.0 15.0 3.9 0.0 0.1 14.9 6.7 10.5 0.1 0.0 0.0 14.4 15.0 7.8 11.0 11.7 2.0 1.9 0.0 0.1 0.0 3.4 5.8 14.2 1.6 15.0 15.0 15.0 15.0 15.0 15.0 15.0 15.0 14.5 8.5 13.1 7.1 2.1 2.2 13.7 15.0 15.0
15.0 15.0 1.9 0.0 0.1 15.0 15.0 3.9 0.1 0.0 0.0 0.0 0.0 15.0 14.8 8.9 15.0 0.5 0.0 0.0 0.0 0.1 2.5 14.9 1.0 1.2 15.0 15.0 15.0 15.0 15.0 15.0 15.0 15.0 14.7 9.6 0.6 4.8 1.7 2.5 14.8 15.0 14.8 11.1
15.0 0.2 0.0 15.0 15.0 7.7 0.1 0.0 0.0 1.8 0.0 0.1 2.4 15.0 15.0 15.0 0.0 1.5 0.0 0.0 0.1 0.3 14.8 12.3 11.2 15.0 15.0 15.0 15.0 15.0 15.0 15.0 10.3 8.3 1.3 1.2 3.8 3.1 5.9 0.6 3.8 4.7 7.2 0.1
9.3 10.1 15.0 14.9 9.2 1.1 0.1 0.0 12.7 8.9 11.9 15.0 8.8 15.0 7.9 0.2 0.1 0.0 0.0 0.0 0.0 0.1 0.1 0.1 4.9 0.1 6.5 12.4 9.2 14.4 14.9 13.7 7.0 4.7 2.3 3.5 3.0 3.7 3.0 0.1 0.0 0.0 0.0 0.0
15.0 15.0 15.0 11.8 2.1 0.2 0.1 2.1 15.0 15.0 15.0 12.6 0.1 0.0 0.0 0.0 0.0 0.0 0.0 0.0 0.8 0.0 0.0 5.8 0.0 0.0 0.1 0.1 1.3 0.4 2.7 11.2 0.4 0.1 0.0 0.1 0.0 0.1 0.3 0.1 0.1 0.1 0.2 2.0
6.0 1.6 0.1 9.1 0.9 1.6 14.3 0.5 1.7 0.9 1.8 0.1 0.0 0.0 0.0 0.0 0.0 0.0 0.0 2.3 8.1 0.2 0.3 0.1 0.1 0.0 0.0 0.0 0.0 0.0 0.0 0.0 0.1 0.1 0.1 0.1 0.1 0.1 0.1 0.1 0.2 3.3 6.5 13.8
1.8 1.6 0.9 1.6 14.0 15.0 15.0 15.0 15.0 15.0 15.0 7.7 0.0 0.0 0.1 0.0 0.0 0.0 8.9 0.3 2.2 3.1 0.1 0.0 0.0 0.0 0.0 0.0 0.0 0.1 0.1 0.1 0.1 0.1 0.1 0.1 0.1 0.2 0.1 0.8 4.7 13.9 9.8 12.9
8.6 12.0 7.4 15.0 11.8 15.0 1.0 6.8 14.9 15.0 15.0 15.0 7.0 0.9 0.2 0.9 15.0 4.6 7.6 8.7 3.8 0.1 2.8 0.0 0.0 0.0 0.0 0.0 0.0 0.0 0.1 0.2 0.2 0.9 1.6 0.7 2.5 4.8 4.6 15.0 15.0 15.0 13.5 15.0
15.0 15.0 15.0 14.0 15.0 13.9 13.7 14.6 13.0 14.9 14.8 13.8 2.7 11.7 5.2 4.5 15.0 15.0 15.0 1.6 9.4 15.0 0.3 0.0 0.1 0.0 0.0 0.0 0.0 0.1 0.5 0.4 2.8 13.7 15.0 14.8 15.0 15.0 15.0 15.0 15.0 15.0 15.0 15.0